Weather reports worldwide

Advertisment
Castellon, Spain (8286): temperature & dewpoint: 10.12.2017 06:00:00 - 16.12.2017 06:00:00 (CET)Castellon, Spain (8286): wind speed: 10.12.2017 06:00:00 - 16.12.2017 06:00:00 (CET)Castellon, Spain (8286): wind direction: 10.12.2017 06:00:00 - 16.12.2017 06:00:00 (CET)Castellon, Spain (8286): reduced air pressure: 10.12.2017 06:00:00 - 16.12.2017 06:00:00 (CET)Castellon, Spain (8286): visibility: 10.12.2017 06:00:00 - 16.12.2017 06:00:00 (CET)Castellon, Spain (8286): precipitation: 10.12.2017 06:00:00 - 16.12.2017 06:00:00 (CET)
Date & Time tt [°C] td [°C] ff [km/h] ff [kn] dd ppp [hPa] vv [km] rr [mm]
16.12.2017 06:00:00 - - - - - - - -
16.12.2017 05:00:00 9,4 -2,6 5 3 WNW 1013,1 20 0,0
16.12.2017 04:00:00 9,5 -2,8 9 5 NW 1013,2 20 -
16.12.2017 03:00:00 8,2 -2,5 5 3 NW 1012,8 20 0,0
16.12.2017 02:00:00 7,5 -2,5 4 2 SSW 1012,4 20 0,0
16.12.2017 01:00:00 9,2 -2,4 2 1 N 1012,4 20 -
16.12.2017 00:00:00 9,4 -2,3 5 3 WNW 1012,6 20 0,0
15.12.2017 23:00:00 9,3 -1,7 8 4 WNW 1012,4 20 0,0
15.12.2017 22:00:00 10,1 -1,0 5 3 WNW 1012,1 20 -
15.12.2017 21:00:00 11,3 -2,2 2 1 NW 1011,6 20 0,0
15.12.2017 20:00:00 13,0 -1,0 8 4 WNW 1011,0 20 0,0
15.12.2017 19:00:00 14,2 -2,3 9 5 NNW 1010,2 20 -
15.12.2017 18:00:00 14,2 0,8 8 4 NNW 1009,5 20 0,0
15.12.2017 17:00:00 14,7 1,2 13 7 N 1008,6 20 0,0
15.12.2017 16:00:00 17,2 2,0 11 6 NNE 1008,2 19 -
15.12.2017 15:00:00 18,1 2,8 13 7 W 1007,6 20 0,0
15.12.2017 14:00:00 18,1 2,4 21 11 WNW 1007,7 20 0,0
15.12.2017 13:00:00 19,2 1,6 22 12 W 1007,9 40 -
15.12.2017 12:00:00 17,6 2,3 15 8 W 1008,9 20 0,0
15.12.2017 11:00:00 17,7 2,0 15 8 WSW 1009,6 20 0,0
15.12.2017 10:00:00 16,5 1,4 8 4 NNW 1009,1 40 -
15.12.2017 09:00:00 15,4 4,1 11 6 W 1008,1 20 0,0
15.12.2017 08:00:00 15,3 5,5 13 7 WSW 1006,8 20 0,0
15.12.2017 07:00:00 14,8 7,1 11 6 WSW 1007,3 20 -
15.12.2017 06:00:00 15,0 7,8 11 6 WSW 1007,7 20 0,0
15.12.2017 05:00:00 13,7 7,7 8 4 SSW 1008,0 15 0,0
15.12.2017 04:00:00 14,1 8,3 4 2 S 1008,6 20 -
15.12.2017 03:00:00 15,1 7,9 4 2 SE 1008,9 20 0,0
15.12.2017 02:00:00 15,6 7,6 8 4 WSW 1009,1 20 0,0
15.12.2017 01:00:00 15,7 7,2 8 4 W 1010,0 20 -
15.12.2017 00:00:00 16,4 6,5 13 7 W 1011,1 20 0,0
14.12.2017 23:00:00 15,7 6,4 13 7 WSW 1011,7 20 0,0
14.12.2017 22:00:00 15,8 6,2 11 6 SW 1012,4 20 -
14.12.2017 21:00:00 18,2 6,4 9 5 SW 1013,0 20 0,0
14.12.2017 20:00:00 19,2 6,6 13 7 WSW 1012,8 20 0,0
14.12.2017 19:00:00 19,6 6,3 9 5 W 1012,5 20 -
14.12.2017 18:00:00 18,7 6,5 11 6 W 1012,3 20 0,0
14.12.2017 17:00:00 18,3 7,7 5 3 NNE 1012,6 19 0,0
14.12.2017 16:00:00 19,3 7,4 5 3 ENE 1013,2 19 -
14.12.2017 15:00:00 20,1 7,8 8 4 ESE 1013,5 20 0,0
14.12.2017 14:00:00 19,9 6,2 5 3 ESE 1014,8 20 0,0
14.12.2017 13:00:00 18,4 6,2 8 4 SE 1016,0 40 -
14.12.2017 12:00:00 15,9 4,6 4 2 ESE 1017,4 20 0,0
14.12.2017 11:00:00 13,7 4,6 2 1 NNE 1017,9 20 0,0
14.12.2017 10:00:00 10,8 2,6 2 1 SSE 1018,0 40 -
14.12.2017 09:00:00 9,1 1,7 4 2 WNW 1018,2 20 0,0
14.12.2017 08:00:00 8,5 1,4 5 3 WNW 1017,9 20 0,0
14.12.2017 07:00:00 8,0 0,7 5 3 NW 1017,9 20 -
14.12.2017 06:00:00 7,5 0,5 5 3 WNW 1018,0 20 0,0
14.12.2017 05:00:00 8,0 0,5 5 3 W 1018,6 20 0,0
14.12.2017 04:00:00 7,7 -0,1 8 4 WNW 1018,6 20 -
14.12.2017 03:00:00 7,9 -0,1 8 4 WNW 1019,3 20 0,0
14.12.2017 02:00:00 7,8 -0,2 8 4 NW 1019,5 20 0,0
14.12.2017 01:00:00 7,9 0,1 8 4 WNW 1020,5 20 -
14.12.2017 00:00:00 7,8 -0,4 8 4 WNW 1020,7 20 0,0
13.12.2017 23:00:00 7,8 -0,4 5 3 NW 1021,3 20 0,0
13.12.2017 22:00:00 8,6 -0,5 5 3 WNW 1021,0 20 -
13.12.2017 21:00:00 9,5 -0,4 5 3 WNW 1021,0 19 0,0
13.12.2017 20:00:00 10,0 -0,2 4 2 WNW 1021,3 20 0,0
13.12.2017 19:00:00 12,2 0,0 2 1 WNW 1021,2 19 -
13.12.2017 18:00:00 13,6 0,6 4 2 N 1021,7 20 0,0
13.12.2017 17:00:00 15,3 0,3 5 3 ESE 1021,6 20 0,0
13.12.2017 16:00:00 15,6 -1,5 5 3 S 1021,9 20 -
13.12.2017 15:00:00 14,8 -0,9 8 4 SSW 1022,0 20 0,0
13.12.2017 14:00:00 14,0 0,2 8 4 SSW 1023,4 20 0,0
13.12.2017 13:00:00 14,0 -0,9 9 5 SSW 1024,0 40 -
13.12.2017 12:00:00 - - - - - - - -
13.12.2017 11:00:00 - - - - - - - -
13.12.2017 10:00:00 8,2 -1,6 9 5 WNW 1026,1 40 -
13.12.2017 09:00:00 5,9 -2,5 13 7 WNW 1026,1 20 0,0
13.12.2017 08:00:00 5,0 -2,6 15 8 WNW 1026,0 20 0,0
13.12.2017 07:00:00 4,6 -3,0 11 6 WNW 1025,3 40 -
13.12.2017 06:00:00 4,7 -3,1 15 8 WNW 1025,0 20 0,0
13.12.2017 05:00:00 4,7 -2,9 11 6 WNW 1024,6 20 0,0
13.12.2017 04:00:00 5,1 -3,2 11 6 WNW 1024,8 20 -
13.12.2017 03:00:00 5,5 -2,8 9 5 WNW 1024,8 20 0,0
13.12.2017 02:00:00 5,5 -2,8 11 6 WNW 1024,4 20 0,0
13.12.2017 01:00:00 6,4 -2,5 13 7 WNW 1024,0 20 -
13.12.2017 00:00:00 7,2 -2,8 11 6 WNW 1023,7 20 0,0
12.12.2017 23:00:00 7,3 -3,6 8 4 WNW 1022,3 20 0,0
12.12.2017 22:00:00 7,8 -4,7 9 5 WNW 1022,2 20 -
12.12.2017 21:00:00 8,1 -4,7 5 3 NW 1021,6 20 0,0
12.12.2017 20:00:00 8,4 0,6 5 3 WNW 1020,9 20 0,0
12.12.2017 19:00:00 10,2 0,2 5 3 N 1019,3 20 -
12.12.2017 18:00:00 10,8 1,1 0 0 N 1018,3 20 0,0
12.12.2017 17:00:00 12,6 0,7 5 3 SSW 1016,8 20 0,0
12.12.2017 16:00:00 13,7 0,7 9 5 S 1015,7 20 -
12.12.2017 15:00:00 14,3 -1,0 8 4 S 1015,0 20 0,0
12.12.2017 14:00:00 15,0 -0,4 11 6 S 1014,4 20 0,0
12.12.2017 13:00:00 14,7 -3,6 8 4 W 1014,5 40 -
12.12.2017 12:00:00 12,8 -2,7 11 6 W 1014,5 20 0,0
12.12.2017 11:00:00 10,9 -1,2 9 5 WNW 1014,4 19 0,0
12.12.2017 10:00:00 10,7 -0,5 11 6 WNW 1013,8 40 -
12.12.2017 09:00:00 10,6 -0,9 13 7 W 1012,5 19 0,0
12.12.2017 08:00:00 10,4 -2,0 8 4 WNW 1011,4 20 0,0
12.12.2017 07:00:00 9,4 -1,7 9 5 NNW 1010,2 20 -
12.12.2017 06:00:00 9,6 -0,9 9 5 WNW 1008,6 20 0,0
12.12.2017 05:00:00 10,2 -0,1 11 6 W 1007,8 16 0,0
12.12.2017 04:00:00 10,5 -0,4 9 5 N 1007,1 20 -
12.12.2017 03:00:00 7,7 0,9 8 4 WNW 1006,7 20 0,0
12.12.2017 02:00:00 8,9 0,8 11 6 WNW 1005,9 20 0,0
12.12.2017 01:00:00 9,3 1,0 9 5 WNW 1005,5 20 -
12.12.2017 00:00:00 10,1 0,9 5 3 NNW 1004,7 20 0,0
11.12.2017 23:00:00 9,9 1,0 5 3 W 1003,7 20 0,0
11.12.2017 22:00:00 9,0 0,4 4 2 NW 1002,7 20 -
11.12.2017 21:00:00 10,4 1,5 4 2 SW 1001,6 20 0,0
11.12.2017 20:00:00 11,3 1,2 5 3 SSW 1000,5 20 0,0
11.12.2017 19:00:00 12,9 1,5 8 4 WSW 999,1 20 -
11.12.2017 18:00:00 13,7 2,0 4 2 SW 997,4 20 0,0
11.12.2017 17:00:00 15,7 1,4 15 8 W 995,4 20 0,0
11.12.2017 16:00:00 16,2 0,7 15 8 W 994,4 19 -
11.12.2017 15:00:00 16,8 1,2 21 11 W 993,3 20 0,0
11.12.2017 14:00:00 15,2 2,0 21 11 WSW 992,6 20 0,0
11.12.2017 13:00:00 15,5 1,9 18 10 WSW 992,8 40 -
11.12.2017 12:00:00 15,8 3,2 16 9 SW 992,7 20 0,0
11.12.2017 11:00:00 16,6 4,0 11 6 WNW 992,2 19 0,0
11.12.2017 10:00:00 16,6 6,4 11 6 SW 990,8 40 -
11.12.2017 09:00:00 17,7 6,2 18 10 SW 989,7 20 0,0
11.12.2017 08:00:00 17,1 8,2 16 9 S 989,6 20 0,0
11.12.2017 07:00:00 17,1 7,4 18 10 SSW 989,7 20 -
11.12.2017 06:00:00 17,1 7,4 24 13 SSW 989,8 20 0,0
11.12.2017 05:00:00 17,1 8,0 21 11 SSW 990,9 20 0,0
11.12.2017 04:00:00 17,3 7,9 26 14 SSW 992,4 20 -
11.12.2017 03:00:00 16,9 7,0 24 13 SSW 993,9 20 0,0
11.12.2017 02:00:00 17,0 6,8 28 15 SW 995,4 20 0,0
11.12.2017 01:00:00 17,0 6,8 22 12 SW 997,7 20 -
11.12.2017 00:00:00 16,1 7,6 9 5 S 999,5 20 0,0
10.12.2017 23:00:00 15,8 8,3 21 11 SW 1000,8 20 0,0
10.12.2017 22:00:00 16,5 7,9 24 13 WSW 1002,2 20 -
10.12.2017 21:00:00 17,1 7,2 16 9 WSW 1003,6 20 0,0
10.12.2017 20:00:00 16,8 5,7 11 6 SW 1004,3 20 0,0
10.12.2017 19:00:00 16,5 5,7 5 3 WSW 1005,3 20 -
10.12.2017 18:00:00 17,1 5,7 21 11 WSW 1006,0 20 0,0
10.12.2017 17:00:00 17,5 6,1 18 10 WNW 1006,6 20 0,0
10.12.2017 16:00:00 18,4 5,9 21 11 W 1007,7 20 -
10.12.2017 15:00:00 19,4 5,8 15 8 WSW 1008,3 20 0,0
10.12.2017 14:00:00 19,7 6,1 16 9 WSW 1009,0 20 0,0
10.12.2017 13:00:00 19,8 5,8 18 10 WSW 1010,4 20 -
10.12.2017 12:00:00 18,6 7,4 9 5 SW 1011,9 20 0,0
10.12.2017 11:00:00 16,2 7,9 11 6 SSW 1013,6 20 0,0
10.12.2017 10:00:00 14,3 7,8 11 6 SSW 1014,1 20 -
10.12.2017 09:00:00 12,5 7,4 13 7 WSW 1014,1 20 0,0
10.12.2017 08:00:00 11,4 7,1 13 7 SW 1014,7 20 0,0
10.12.2017 07:00:00 11,9 7,0 15 8 SW 1015,0 20 -
10.12.2017 06:00:00 9,5 6,2 9 5 WSW 1015,4 20 0,0

tt = temperature
td = dewpoint
ff = wind speed
dd = wind direction
ppp = reduced air pressure
vv = visibility
rr = precipitation

Next stations